Time,TemperatureF,DewpointF,PressureIn,WindDirection,WindDirectionDegrees,WindSpeedMPH,WindSpeedGustMPH,Humidity,HourlyPrecipIn,Conditions,Clouds,dailyrainin,SoftwareType,DateUTC
2013-03-23 00:14:00,46.2,45.7,30.03,ESE,108,2.0,5.0,98,0.00,CLR,,0.00,WeatherDisplay:10.37,2013-03-23 07:14:00,
2013-03-23 00:29:00,45.9,45.3,30.06,ESE,110,3.0,5.0,98,0.00,CLR,,0.00,WeatherDisplay:10.37,2013-03-23 07:29:00,
2013-03-23 00:44:00,46.0,45.5,30.03,ESE,102,2.0,5.0,98,0.00,CLR,,0.00,WeatherDisplay:10.37,2013-03-23 07:44:00,
2013-03-23 00:59:00,46.0,45.5,30.03,ESE,106,0.0,4.0,98,0.00,CLR,,0.00,WeatherDisplay:10.37,2013-03-23 07:59:00,
2013-03-23 01:14:00,45.9,45.3,30.03,ESE,116,1.0,3.0,98,0.00,CLR,,0.00,WeatherDisplay:10.37,2013-03-23 08:14:00,
2013-03-23 01:29:00,46.0,45.5,30.03,East,101,1.0,5.0,98,0.00,CLR,,0.00,WeatherDisplay:10.37,2013-03-23 08:29:00,
2013-03-23 01:44:00,46.0,45.5,30.06,ESE,113,3.0,4.0,98,0.00,CLR,,0.00,WeatherDisplay:10.37,2013-03-23 08:44:00,
2013-03-23 01:59:00,45.7,45.1,30.03,ESE,103,1.0,5.0,98,0.00,CLR,,0.00,WeatherDisplay:10.37,2013-03-23 08:59:00,
2013-03-23 02:14:00,46.0,45.5,30.03,ESE,108,1.0,3.0,98,0.00,CLR,,0.00,WeatherDisplay:10.37,2013-03-23 09:14:00,
2013-03-23 02:29:00,45.8,45.3,30.03,East,87,1.0,3.0,98,0.00,CLR,,0.00,WeatherDisplay:10.37,2013-03-23 09:29:00,
2013-03-23 02:44:00,44.6,44.0,30.03,East,90,0.0,1.0,98,0.00,CLR,,0.00,WeatherDisplay:10.37,2013-03-23 09:44:00,
2013-03-23 02:59:00,43.9,43.4,30.03,East,82,0.0,2.0,98,0.00,CLR,,0.00,WeatherDisplay:10.37,2013-03-23 09:59:00,
2013-03-23 03:14:00,43.5,43.0,30.03,East,97,0.0,2.0,98,0.00,CLR,,0.00,WeatherDisplay:10.37,2013-03-23 10:14:00,
2013-03-23 03:29:00,43.2,42.6,30.03,East,88,0.0,4.0,98,0.00,CLR,,0.00,WeatherDisplay:10.37,2013-03-23 10:29:00,
2013-03-23 03:44:00,42.6,42.1,30.03,ENE,69,0.0,1.0,98,0.00,CLR,,0.00,WeatherDisplay:10.37,2013-03-23 10:44:00,
2013-03-23 03:59:00,42.8,42.3,30.03,NNW,338,0.0,1.0,98,0.00,CLR,,0.00,WeatherDisplay:10.37,2013-03-23 10:59:00,
2013-03-23 04:14:00,43.3,42.8,30.03,NNW,338,0.0,1.0,98,0.00,CLR,,0.00,WeatherDisplay:10.37,2013-03-23 11:14:00,
2013-03-23 04:29:00,43.3,42.8,30.03,East,84,0.0,3.0,98,0.00,CLR,,0.00,WeatherDisplay:10.37,2013-03-23 11:29:00,
2013-03-23 04:44:00,42.8,42.3,30.03,East,99,3.0,5.0,98,0.00,CLR,,0.00,WeatherDisplay:10.37,2013-03-23 11:44:00,
2013-03-23 04:59:00,43.2,42.6,30.03,East,95,1.0,3.0,98,0.00,CLR,,0.00,WeatherDisplay:10.37,2013-03-23 11:59:00,
2013-03-23 05:14:00,43.2,42.6,30.03,East,90,2.0,4.0,98,0.00,CLR,,0.00,WeatherDisplay:10.37,2013-03-23 12:14:00,
2013-03-23 05:29:00,43.3,42.8,30.03,East,97,1.0,3.0,98,0.00,CLR,,0.00,WeatherDisplay:10.37,2013-03-23 12:29:00,
2013-03-23 05:44:00,43.0,42.5,30.03,ESE,102,2.0,2.0,98,0.00,CLR,,0.00,WeatherDisplay:10.37,2013-03-23 12:44:00,
2013-03-23 05:59:00,42.8,42.3,30.03,ESE,112,1.0,3.0,98,0.00,CLR,,0.00,WeatherDisplay:10.37,2013-03-23 12:59:00,
2013-03-23 06:14:00,43.3,42.8,30.03,ESE,103,2.0,3.0,98,0.00,CLR,,0.00,WeatherDisplay:10.37,2013-03-23 13:14:00,
2013-03-23 06:29:00,42.8,42.3,30.03,ESE,109,5.0,6.0,98,0.00,CLR,,0.00,WeatherDisplay:10.37,2013-03-23 13:29:00,
2013-03-23 06:44:00,45.0,44.4,30.03,ENE,66,2.0,9.0,98,0.00,CLR,,0.00,WeatherDisplay:10.37,2013-03-23 13:44:00,
2013-03-23 06:59:00,44.6,44.1,30.06,North,11,0.0,6.0,98,0.00,CLR,,0.00,WeatherDisplay:10.37,2013-03-23 13:59:00,
2013-03-23 07:14:00,43.4,42.9,30.06,NNW,338,0.0,1.0,98,0.00,CLR,,0.00,WeatherDisplay:10.37,2013-03-23 14:14:00,
2013-03-23 07:29:00,43.3,42.8,30.06,ESE,110,2.0,5.0,98,0.00,CLR,,0.00,WeatherDisplay:10.37,2013-03-23 14:29:00,
2013-03-23 07:44:00,44.8,44.3,30.06,SE,134,0.0,3.0,98,0.00,CLR,,0.00,WeatherDisplay:10.37,2013-03-23 14:44:00,
2013-03-23 07:59:00,46.2,45.7,30.06,East,99,0.0,0.0,98,0.00,CLR,,0.00,WeatherDisplay:10.37,2013-03-23 14:59:00,
2013-03-23 08:14:00,47.4,46.8,30.09,East,87,0.0,0.0,98,0.00,CLR,,0.00,WeatherDisplay:10.37,2013-03-23 15:14:00,
2013-03-23 08:29:00,48.5,47.9,30.09,WNW,296,2.0,5.0,98,0.00,CLR,,0.00,WeatherDisplay:10.37,2013-03-23 15:29:00,
2013-03-23 08:44:00,50.0,49.5,30.09,NNW,328,0.0,5.0,98,0.00,CLR,,0.00,WeatherDisplay:10.37,2013-03-23 15:44:00,
2013-03-23 08:59:00,51.2,50.6,30.09,WNW,284,2.0,5.0,98,0.00,CLR,,0.00,WeatherDisplay:10.37,2013-03-23 15:59:00,
2013-03-23 09:15:00,51.6,51.1,30.09,ENE,77,3.0,6.0,98,0.00,CLR,,0.00,WeatherDisplay:10.37,2013-03-23 16:15:00,
2013-03-23 09:30:00,53.2,52.6,30.09,NNW,348,2.0,6.0,98,0.00,CLR,,0.00,WeatherDisplay:10.37,2013-03-23 16:30:00,
2013-03-23 09:45:00,55.6,50.8,30.09,East,90,5.0,8.0,84,0.00,CLR,,0.00,WeatherDisplay:10.37,2013-03-23 16:45:00,
2013-03-23 10:00:00,57.0,36.9,30.09,ENE,74,7.0,9.0,47,0.00,CLR,,0.00,WeatherDisplay:10.37,2013-03-23 17:00:00,
2013-03-23 10:15:00,57.9,34.3,30.09,ENE,66,6.0,9.0,41,0.00,CLR,,0.00,WeatherDisplay:10.37,2013-03-23 17:15:00,
2013-03-23 10:30:00,59.4,34.4,30.09,NNE,27,5.0,6.0,39,0.00,CLR,,0.00,WeatherDisplay:10.37,2013-03-23 17:30:00,
2013-03-23 10:45:00,60.0,31.5,30.09,ENE,71,5.0,9.0,34,0.00,CLR,,0.00,WeatherDisplay:10.37,2013-03-23 17:45:00,
2013-03-23 11:01:00,60.7,30.6,30.09,ENE,64,3.0,9.0,32,0.00,CLR,,0.00,WeatherDisplay:10.37,2013-03-23 18:01:00,
2013-03-23 11:15:00,60.6,27.3,30.09,East,87,6.0,10.0,28,0.00,CLR,,0.00,WeatherDisplay:10.37,2013-03-23 18:15:00,
2013-03-23 11:45:00,61.8,26.6,30.09,ENE,75,7.0,10.0,26,0.00,CLR,,0.00,WeatherDisplay:10.37,2013-03-23 18:45:00,
2013-03-23 12:00:00,60.4,36.6,30.09,NNW,331,9.0,13.0,41,0.00,CLR,,0.00,WeatherDisplay:10.37,2013-03-23 19:00:00,
2013-03-23 12:15:00,56.1,48.3,30.09,WNW,295,9.0,14.0,75,0.00,CLR,,0.00,WeatherDisplay:10.37,2013-03-23 19:15:00,
2013-03-23 12:30:00,55.2,50.1,30.09,NW,307,9.0,12.0,83,0.00,CLR,,0.00,WeatherDisplay:10.37,2013-03-23 19:30:00,
2013-03-23 12:45:00,55.0,53.3,30.06,NW,310,10.0,13.0,94,0.00,CLR,,0.00,WeatherDisplay:10.37,2013-03-23 19:45:00,
2013-03-23 13:00:00,54.7,53.3,30.06,WNW,301,10.0,14.0,95,0.00,CLR,,0.00,WeatherDisplay:10.37,2013-03-23 20:00:00,
2013-03-23 13:15:00,55.0,53.0,30.06,NW,305,9.0,13.0,93,0.00,CLR,,0.00,WeatherDisplay:10.37,2013-03-23 20:15:00,
2013-03-23 13:30:00,55.5,53.0,30.06,NW,309,8.0,11.0,91,0.00,CLR,,0.00,WeatherDisplay:10.37,2013-03-23 20:30:00,
2013-03-23 13:45:00,55.9,53.6,30.06,WNW,301,9.0,12.0,92,0.00,CLR,,0.00,WeatherDisplay:10.37,2013-03-23 20:45:00,
2013-03-23 14:00:00,56.7,54.1,30.06,WNW,299,9.0,12.0,91,0.00,CLR,,0.00,WeatherDisplay:10.37,2013-03-23 21:00:00,
2013-03-23 14:15:00,56.5,53.9,30.06,WNW,299,12.0,14.0,91,0.00,CLR,,0.00,WeatherDisplay:10.37,2013-03-23 21:15:00,
2013-03-23 14:30:00,56.1,53.5,30.06,WNW,293,13.0,15.0,91,0.00,CLR,,0.00,WeatherDisplay:10.37,2013-03-23 21:30:00,
2013-03-23 14:45:00,56.7,54.1,30.06,WNW,296,10.0,16.0,91,0.00,CLR,,0.00,WeatherDisplay:10.37,2013-03-23 21:45:00,
2013-03-23 15:00:00,56.1,53.5,30.03,WNW,296,12.0,14.0,91,0.00,CLR,,0.00,WeatherDisplay:10.37,2013-03-23 22:00:00,
2013-03-23 15:15:00,55.0,53.1,30.03,NW,304,12.0,16.0,93,0.00,CLR,,0.00,WeatherDisplay:10.37,2013-03-23 22:15:00,
2013-03-23 15:30:00,55.4,52.8,30.03,WNW,294,13.0,15.0,91,0.00,CLR,,0.00,WeatherDisplay:10.37,2013-03-23 22:30:00,
2013-03-23 15:45:00,56.1,53.8,30.03,WNW,292,14.0,15.0,92,0.00,CLR,,0.00,WeatherDisplay:10.37,2013-03-23 22:45:00,
2013-03-23 16:00:00,56.1,53.5,30.03,WNW,293,13.0,17.0,91,0.00,CLR,,0.00,WeatherDisplay:10.37,2013-03-23 23:00:00,
2013-03-23 16:15:00,56.6,54.0,30.03,WNW,295,12.0,15.0,91,0.00,CLR,,0.00,WeatherDisplay:10.37,2013-03-23 23:15:00,
2013-03-23 16:30:00,56.5,52.3,30.03,WNW,294,13.0,16.0,86,0.00,CLR,,0.00,WeatherDisplay:10.37,2013-03-23 23:30:00,
2013-03-23 16:44:00,57.4,52.9,30.03,WNW,293,10.0,14.0,85,0.00,CLR,,0.00,WeatherDisplay:10.37,2013-03-23 23:44:00,
2013-03-23 17:00:00,57.7,53.2,30.03,WNW,292,10.0,13.0,85,0.00,CLR,,0.00,WeatherDisplay:10.37,2013-03-24 00:00:00,
2013-03-23 17:14:00,56.7,53.5,30.03,WNW,292,15.0,18.0,89,0.00,CLR,,0.00,WeatherDisplay:10.37,2013-03-24 00:14:00,
2013-03-23 17:30:00,55.7,52.8,30.03,WNW,293,16.0,17.0,90,0.00,CLR,,0.00,WeatherDisplay:10.37,2013-03-24 00:30:00,
2013-03-23 17:45:00,55.0,53.0,30.00,WNW,294,15.0,19.0,93,0.00,CLR,,0.00,WeatherDisplay:10.37,2013-03-24 00:45:00,
2013-03-23 17:59:00,54.7,53.0,30.00,WNW,293,16.0,20.0,94,0.00,CLR,,0.00,WeatherDisplay:10.37,2013-03-24 00:59:00,
2013-03-23 18:14:00,53.6,51.9,30.00,WNW,294,16.0,21.0,94,0.00,CLR,,0.00,WeatherDisplay:10.37,2013-03-24 01:14:00,
2013-03-23 18:29:00,53.4,52.3,30.03,WNW,293,17.0,20.0,96,0.00,CLR,,0.00,WeatherDisplay:10.37,2013-03-24 01:29:00,
2013-03-23 18:44:00,53.1,52.5,30.03,WNW,293,16.0,18.0,98,0.00,CLR,,0.00,WeatherDisplay:10.37,2013-03-24 01:44:00,
2013-03-23 19:00:00,52.5,52.0,30.03,WNW,294,15.0,19.0,98,0.00,CLR,,0.00,WeatherDisplay:10.37,2013-03-24 02:00:00,
2013-03-23 19:14:00,51.7,51.1,30.03,WNW,293,14.0,17.0,98,0.00,CLR,,0.00,WeatherDisplay:10.37,2013-03-24 02:14:00,
2013-03-23 19:29:00,50.9,50.4,30.00,WNW,294,10.0,16.0,98,0.00,CLR,,0.00,WeatherDisplay:10.37,2013-03-24 02:29:00,
2013-03-23 19:44:00,50.7,50.2,30.03,WNW,291,12.0,14.0,98,0.00,CLR,,0.00,WeatherDisplay:10.37,2013-03-24 02:44:00,
2013-03-23 19:59:00,50.4,49.8,30.03,WNW,292,12.0,14.0,98,0.00,CLR,,0.00,WeatherDisplay:10.37,2013-03-24 02:59:00,
2013-03-23 20:14:00,50.2,49.6,30.03,West,279,12.0,14.0,98,0.00,CLR,,0.00,WeatherDisplay:10.37,2013-03-24 03:14:00,
2013-03-23 20:29:00,50.0,49.5,30.03,WNW,292,15.0,15.0,98,0.00,CLR,,0.00,WeatherDisplay:10.37,2013-03-24 03:29:00,
2013-03-23 20:44:00,50.0,49.5,30.03,WNW,290,13.0,15.0,98,0.00,CLR,,0.00,WeatherDisplay:10.37,2013-03-24 03:44:00,
2013-03-23 20:59:00,49.8,49.3,30.03,WNW,292,14.0,16.0,98,0.00,CLR,,0.00,WeatherDisplay:10.37,2013-03-24 03:59:00,
2013-03-23 21:14:00,49.5,48.9,30.03,WNW,292,10.0,15.0,98,0.00,CLR,,0.00,WeatherDisplay:10.37,2013-03-24 04:14:00,
2013-03-23 21:29:00,49.5,48.9,30.03,WNW,289,10.0,12.0,98,0.00,CLR,,0.00,WeatherDisplay:10.37,2013-03-24 04:29:00,
2013-03-23 21:44:00,49.5,48.9,30.03,West,269,7.0,11.0,98,0.00,CLR,,0.00,WeatherDisplay:10.37,2013-03-24 04:44:00,
2013-03-23 21:59:00,49.3,48.7,30.06,West,278,7.0,9.0,98,0.00,CLR,,0.00,WeatherDisplay:10.37,2013-03-24 04:59:00,
2013-03-23 22:15:00,49.1,48.6,30.06,West,277,7.0,10.0,98,0.00,CLR,,0.00,WeatherDisplay:10.37,2013-03-24 05:15:00,
2013-03-23 22:30:00,48.9,48.4,30.03,West,267,3.0,10.0,98,0.00,CLR,,0.00,WeatherDisplay:10.37,2013-03-24 05:30:00,
2013-03-23 22:45:00,49.1,48.6,30.06,WSW,250,5.0,6.0,98,0.00,CLR,,0.00,WeatherDisplay:10.37,2013-03-24 05:45:00,
2013-03-23 23:00:00,48.7,48.2,30.06,WSW,248,5.0,6.0,98,0.00,CLR,,0.00,WeatherDisplay:10.37,2013-03-24 06:00:00,
2013-03-23 23:15:00,48.7,48.2,30.06,WSW,247,6.0,9.0,98,0.00,CLR,,0.00,WeatherDisplay:10.37,2013-03-24 06:15:00,
2013-03-23 23:30:00,48.6,48.0,30.06,West,261,6.0,7.0,98,0.00,CLR,,0.00,WeatherDisplay:10.37,2013-03-24 06:30:00,
2013-03-23 23:45:00,48.6,48.0,30.06,WSW,246,7.0,9.0,98,0.00,CLR,,0.00,WeatherDisplay:10.37,2013-03-24 06:45:00,